Lid_Strength_Index
11 12 14 10 8 8 9 10 11 9 8 9 9 9 8 7 7 8 7 7 7 6 2 2 2 1 1 1 1 1 1 0 0 0 1 1 1 0 -0 -1 -1 -1 -1 -1
12 13 8 8 8 9 10 10 11 9 8 9 9 9 7 6 6 6 6 6 5 6 6 2 2 2 2 1 1 1 1 0 0 0 0 0 0 0 -0 -1 -1 -1 -1 -1
11 10 8 9 10 10 10 11 11 11 11 11 11 11 9 6 6 7 7 6 5 4 5 5 3 2 2 2 2 1 1 1 0 0 0 0 0 0 1 0 0 -1 -1 -1
10 9 9 10 11 9 13 8 9 12 12 14 11 15 10 8 8 7 8 7 7 6 4 5 4 3 2 2 1 1 1 1 0 0 1 1 2 2 1 1 0 -0 -1 -1
11 10 11 11 10 8 11 8 9 9 11 12 11 13 11 9 9 8 7 7 7 7 6 5 6 4 2 2 1 1 1 1 0 0 0 1 1 1 1 1 1 0 -0 -1
9 7 8 8 8 8 8 9 10 10 11 17 12 13 12 10 9 8 6 6 6 5 6 5 5 6 3 1 1 1 1 1 1 1 1 1 1 1 1 1 1 1 0 -0
11 10 9 8 9 9 9 11 17 19 18 18 12 13 12 9 8 8 8 7 6 6 6 6 6 6 6 5 2 2 2 2 1 1 1 1 1 1 1 1 1 1 1 1
15 17 11 8 9 11 11 11 16 20 19 16 14 15 12 8 8 7 7 6 6 6 6 6 6 6 6 6 5 3 2 2 1 1 1 1 1 1 1 1 1 1 1 1
14 14 9 8 8 9 12 14 10 14 17 16 13 12 10 9 9 8 8 7 7 7 6 6 6 6 6 7 7 6 5 3 1 1 1 1 1 1 1 1 0 1 0 0
10 16 12 12 10 10 10 9 15 14 20 20 15 14 13 11 10 9 8 8 7 6 7 7 6 6 5 6 7 6 6 6 4 2 1 1 1 1 1 1 1 1 0 1
9 13 15 13 13 13 12 13 12 11 14 18 18 14 9 9 9 8 8 8 8 7 7 6 6 6 6 5 6 6 6 6 6 5 2 1 1 1 1 1 1 1 1 2
10 13 16 15 12 11 10 11 11 15 16 13 14 14 9 9 8 8 9 8 7 7 6 6 6 6 6 6 5 5 5 5 6 5 4 1 1 1 1 1 1 2 2 3
12 14 17 16 14 13 13 11 10 10 12 16 17 14 8 8 9 8 8 7 8 7 7 7 6 6 6 6 6 5 5 5 5 5 5 4 3 3 2 2 3 4 5 6
9 13 14 17 15 13 15 13 11 11 14 14 13 13 10 9 9 8 7 7 7 6 7 7 6 6 6 6 6 5 5 4 5 6 6 5 5 4 5 6 6 8 8 10
9 14 12 12 12 12 12 13 12 12 11 13 13 12 11 9 8 7 7 7 7 7 6 6 6 6 6 6 6 6 5 5 5 6 6 6 6 6 5 7 9 11 10 10
9 14 12 14 12 12 13 12 12 12 12 11 12 11 9 8 7 7 7 8 8 7 6 6 6 6 6 5 6 5 5 5 5 6 7 8 8 8 8 9 11 10 12 13
11 13 14 15 13 12 15 14 12 12 11 11 13 10 8 8 8 7 7 7 7 7 6 6 6 6 5 5 5 5 5 5 6 6 8 11 11 11 11 12 12 12 12 12
11 12 14 16 14 18 12 9 10 11 10 10 10 9 8 7 6 6 6 6 6 6 6 6 5 5 5 4 5 5 5 6 7 8 11 12 12 12 13 12 12 13 13 13
8 11 15 16 16 13 12 12 11 11 11 8 9 8 8 7 7 7 6 6 6 6 5 5 5 5 5 5 5 6 7 8 9 10 11 12 12 13 13 13 13 13 13 13
10 9 13 15 17 18 12 9 8 8 14 8 8 8 8 7 10 8 6 7 7 7 7 7 7 6 6 6 7 8 9 10 10 9 9 10 11 12 12 12 13 13 13 14
14 13 15 15 15 14 9 9 7 14 12 8 7 7 7 8 7 6 7 7 7 8 8 8 7 8 8 9 9 10 10 10 10 10 11 11 11 12 12 12 13 13 13 14
14 15 15 14 16 17 9 9 11 8 7 9 8 8 7 6 7 7 8 8 8 8 9 10 10 10 10 10 10 11 11 11 12 12 12 12 13 12 13 13 13 13 14 13
14 11 13 12 12 9 8 8 7 6 7 8 7 8 7 7 8 8 8 9 9 10 11 12 12 12 12 12 11 12 11 12 12 13 13 13 13 13 13 13 14 14 13 14
11 10 12 11 10 9 9 8 7 8 7 8 7 7 7 7 8 10 10 11 11 11 12 12 12 12 13 13 13 13 13 13 13 13 13 13 13 14 13 13 13 14 14 14
10 11 11 11 12 10 9 8 8 8 9 10 10 9 8 9 10 10 12 12 12 12 13 13 13 13 13 13 13 13 13 13 13 13 14 14 13 13 13 13 13 13 13 13
11 10 11 11 9 8 8 8 8 9 10 10 10 11 11 10 11 12 13 13 13 14 13 13 14 14 14 14 14 14 14 13 13 13 13 13 13 13 14 14 15 14 13 12